Torna al catalogo

STARLINK-36895

AttivoComunicazioniSSO
NORAD 68038·PAYLOAD·🇺🇸 United States

Lanciato Mar 1, 2026 da Vandenberg Space Force Base

Loading…

Prossimi Passaggi (prossime 24 ore)

TLE

AggiornatoSource: CelesTrak SupGP

Epoca: Sep 15, 2026, 03:23 UTC

1 68038C 26040Z   26258.14145833  .00043229  00000+0  13424-2 0  2582
2 68038  97.2854 205.5851 0001852  97.5454  78.2479 15.33405624    19

Traccia STARLINK-36895 in tempo reale con AllMySat

Download on the App Store